EW5291 Weather Reports


time (UTC)temp
C
wind
direction
speed
KPH
gust
KPH
rain 1hr
cm
rain 24hr
cm
rain mn
cm
humidity
%
barometer
mb
20260504193012 22 190 1.6 16.1 0.00 0.00 0.00 20 1007.2
20260504193004 22 191 1.6 9.7 0.00 0.00 0.00 21 1006.7
20260504192504 22 191 0.0 4.8 0.00 0.00 0.00 21 1006.6
20260504191514 23 190 0.0 3.2 0.00 0.00 0.00 21 1007.3
20260504191504 23 190 0.0 3.2 0.00 0.00 0.00 21 1006.6
20260504191004 23 191 0.0 3.2 0.00 0.00 0.00 19 1006.7
20260504190503 23 191 1.6 19.3 0.00 0.00 0.00 23 1006.8
20260504190012 22 190 0.0 19.3 0.00 0.00 0.00 22 1007.5
20260504190004 22 191 1.6 19.3 0.00 0.00 0.00 22 1006.9
20260504184520 22 190 0.0 8.0 0.00 0.00 0.00 20 1007.6
20260504184503 23 191 1.6 9.7 0.00 0.00 0.00 20 1006.9
20260504184003 22 191 0.0 9.7 0.00 0.00 0.00 22 1006.9
20260504183504 23 191 0.0 8.0 0.00 0.00 0.00 18 1007.1
20260504183022 22 190 0.0 9.7 0.00 0.00 0.00 23 1007.7
20260504183003 23 191 0.0 8.0 0.00 0.00 0.00 23 1007.0
20260504182504 23 191 0.0 4.8 0.00 0.00 0.00 20 1007.2
20260504182003 22 191 0.0 11.3 0.00 0.00 0.00 20 1007.1
20260504181511 22 190 0.0 11.3 0.00 0.00 0.00 20 1007.9
20260504181503 22 191 1.6 11.3 0.00 0.00 0.00 20 1007.2
20260504181003 22 191 1.6 17.7 0.00 0.00 0.00 20 1007.1
20260504180503 22 191 1.6 17.7 0.00 0.00 0.00 24 1007.3
20260504180012 22 190 0.0 8.0 0.00 0.00 0.00 22 1008.0
20260504180004 22 191 1.6 29.0 0.00 0.00 0.00 22 1007.3
20260504175504 22 191 1.6 29.0 0.00 0.00 0.00 19 1007.4
20260504175004 22 191 0.0 9.7 0.00 0.00 0.00 21 1007.1
20260504174512 21 190 0.0 9.7 0.00 0.00 0.00 18 1007.9
20260504174503 22 190 1.6 24.1 0.00 0.00 0.00 21 1007.3
20260504174004 21 191 1.6 24.1 0.00 0.00 0.00 19 1007.3
20260504173504 21 191 1.6 12.9 0.00 0.00 0.00 20 1007.3
20260504173011 21 190 0.0 14.5 0.00 0.00 0.00 20 1008.1
20260504173004 21 191 1.6 12.9 0.00 0.00 0.00 20 1007.4
20260504172503 21 190 0.0 4.8 0.00 0.00 0.00 18 1007.4
20260504172003 21 191 1.6 19.3 0.00 0.00 0.00 20 1007.5
20260504171512 21 190 1.6 20.9 0.00 0.00 0.00 19 1008.3
20260504171503 21 191 1.6 19.3 0.00 0.00 0.00 19 1007.6
20260504171003 21 191 1.6 11.3 0.00 0.00 0.00 22 1007.7
20260504170503 21 191 1.6 11.3 0.00 0.00 0.00 20 1007.7
20260504151004 18 191 1.6 20.9 0.00 0.00 0.00 26 1009.0
20260504150504 18 191 1.6 20.9 0.00 0.00 0.00 24 1009.2
20260504140503 17 191 0.0 9.7 0.00 0.00 0.00 32 1009.6
20260504130504 14 191 0.0 9.7 0.00 0.00 0.00 37 1010.1
20260504110503 3 0 0.0 0.0 0.00 0.00 0.00 79 1010.6
20260504081546 3 190 0.0 0.0 0.00 0.00 0.00 74 1010.9
20260504050022 2 190 0.0 0.0 0.00 0.00 0.00 75 1011.1
20260504044521 2 190 0.0 0.0 0.00 0.00 0.00 74 1011.1
20260504043019 2 190 0.0 0.0 0.00 0.00 0.00 72 1011.2
20260504041517 2 190 0.0 0.0 0.00 0.00 0.00 73 1011.1
20260504040017 2 190 0.0 0.0 0.00 0.00 0.00 72 1011.0
20260504034515 2 190 0.0 0.0 0.00 0.00 0.00 70 1010.9
20260504033014 2 190 0.0 0.0 0.00 0.00 0.00 71 1010.8
20260504031515 2 190 0.0 0.0 0.00 0.00 0.00 72 1010.6
20260504030015 2 190 0.0 0.0 0.00 0.00 0.00 73 1010.6
20260504025004 2 0 0.0 0.0 0.00 0.00 0.00 72 1009.8
20260504024602 2 190 0.0 0.0 0.00 0.00 0.00 71 1010.7
20260504023504 2 0 0.0 0.0 0.00 0.00 0.00 71 1009.8
20260504023103 2 190 0.0 0.0 0.00 0.00 0.00 71 1010.6
20260504023003 2 0 0.0 0.0 0.00 0.00 0.00 71 1009.8
20260504022504 2 0 0.0 0.0 0.00 0.00 0.00 71 1009.7
20260504022004 2 0 0.0 0.0 0.00 0.00 0.00 70 1009.6
20260504021603 2 190 0.0 0.0 0.00 0.00 0.00 69 1010.5
20260504021504 2 0 0.0 0.0 0.00 0.00 0.00 69 1009.7
20260504021003 2 0 0.0 0.0 0.00 0.00 0.00 69 1009.6
20260504020504 2 0 0.0 0.0 0.00 0.00 0.00 68 1009.6
20260504020108 2 190 0.0 0.0 0.00 0.00 0.00 68 1010.4
20260504020004 2 0 0.0 0.0 0.00 0.00 0.00 68 1009.6
20260504015503 2 0 0.0 0.0 0.00 0.00 0.00 69 1009.5
20260504015003 3 0 0.0 0.0 0.00 0.00 0.00 69 1009.5
20260504014608 2 190 0.0 0.0 0.00 0.00 0.00 69 1010.3
20260504014503 3 0 0.0 0.0 0.00 0.00 0.00 68 1009.4
20260504014004 3 0 0.0 0.0 0.00 0.00 0.00 68 1009.4
20260504013504 3 0 0.0 0.0 0.00 0.00 0.00 67 1009.4
20260504013103 2 190 0.0 0.0 0.00 0.00 0.00 64 1010.2
20260504013004 3 0 0.0 0.0 0.00 0.00 0.00 64 1009.3
20260504012504 3 0 0.0 0.0 0.00 0.00 0.00 63 1009.3
20260504011603 3 190 0.0 0.0 0.00 0.00 0.00 63 1010.0
20260504011504 3 0 0.0 0.0 0.00 0.00 0.00 63 1009.1
20260504011004 3 0 0.0 0.0 0.00 0.00 0.00 61 1009.1
20260504010503 4 0 0.0 0.0 0.00 0.00 0.00 62 1008.9
20260504010004 4 0 0.0 0.0 0.00 0.00 0.00 62 1008.9
20260504005503 4 0 0.0 0.0 0.00 0.00 0.00 62 1008.8
20260504004603 4 190 0.0 0.0 0.00 0.00 0.00 56 1009.5
20260504004503 5 0 0.0 0.0 0.00 0.00 0.00 57 1008.6
20260504003504 5 0 0.0 0.0 0.00 0.00 0.00 55 1008.5
20260504003114 5 190 0.0 0.0 0.00 0.00 0.00 54 1009.3
20260504003004 5 0 0.0 0.0 0.00 0.00 0.00 54 1008.5
20260504002504 6 0 0.0 0.0 0.00 0.00 0.00 52 1008.4
20260504002004 6 0 0.0 0.0 0.00 0.00 0.00 49 1008.4
20260504001603 6 190 0.0 0.0 0.00 0.00 0.00 47 1009.2
20260504001503 6 0 0.0 0.0 0.00 0.00 0.00 47 1008.3
20260504000504 7 0 0.0 0.0 0.00 0.00 0.00 43 1008.2
20260504000107 7 190 0.0 0.0 0.00 0.00 0.00 45 1008.9
20260503235004 8 0 0.0 0.0 0.00 0.00 0.00 39 1008.0
20260503234602 8 190 0.0 0.0 0.00 0.00 0.00 38 1008.8
20260503234504 8 0 0.0 0.0 0.00 0.00 0.00 38 1008.0
20260503234004 8 0 0.0 0.0 0.00 0.00 0.00 37 1007.9
20260503233504 9 0 0.0 0.0 0.00 0.00 0.00 36 1007.9
20260503233110 8 190 0.0 0.0 0.00 0.00 0.00 37 1008.7
20260503233004 9 0 0.0 0.0 0.00 0.00 0.00 37 1007.9
20260503232004 10 0 0.0 0.0 0.00 0.00 0.00 35 1007.9
20260503231604 9 190 0.0 0.0 0.00 0.00 0.00 35 1008.6
20260503231503 10 0 0.0 0.0 0.00 0.00 0.00 36 1007.8
20260503231004 10 0 0.0 0.0 0.00 0.00 0.00 37 1007.8
20260503230504 10 0 0.0 0.0 0.00 0.00 0.00 36 1007.8
20260503230114 10 190 0.0 0.0 0.00 0.00 0.00 40 1008.6
20260503230003 10 0 0.0 0.0 0.00 0.00 0.00 38 1007.8
20260503225503 10 191 0.0 1.6 0.00 0.00 0.00 37 1007.8
20260503225003 10 191 0.0 1.6 0.00 0.00 0.00 36 1007.8
20260503224614 10 190 0.0 0.0 0.00 0.00 0.00 34 1008.6
20260503224504 10 0 0.0 0.0 0.00 0.00 0.00 35 1007.8
20260503224004 10 0 0.0 0.0 0.00 0.00 0.00 34 1007.8
20260503223504 10 0 0.0 0.0 0.00 0.00 0.00 32 1007.8
20260503223114 10 190 0.0 0.0 0.00 0.00 0.00 33 1008.6
20260503223004 10 0 0.0 0.0 0.00 0.00 0.00 30 1007.8
20260503222504 11 0 0.0 0.0 0.00 0.00 0.00 35 1007.8
20260503222003 11 0 0.0 0.0 0.00 0.00 0.00 32 1007.7
20260503221602 10 190 0.0 0.0 0.00 0.00 0.00 33 1008.5
20260503221503 11 0 0.0 0.0 0.00 0.00 0.00 34 1007.7
20260503221003 11 0 0.0 0.0 0.00 0.00 0.00 33 1007.7
20260503220004 11 191 0.0 4.8 0.00 0.00 0.00 32 1007.7
20260503215503 11 191 0.0 4.8 0.00 0.00 0.00 32 1007.8
20260503215003 11 191 0.0 1.6 0.00 0.00 0.00 31 1007.8
20260503214602 11 190 0.0 1.6 0.00 0.00 0.00 32 1008.6
20260503214003 11 0 0.0 0.0 0.00 0.00 0.00 30 1007.7
20260503213503 11 0 0.0 0.0 0.00 0.00 0.00 32 1007.6
20260503213102 11 190 0.0 11.3 0.00 0.00 0.00 32 1008.4
20260503213004 11 191 0.0 11.3 0.00 0.00 0.00 30 1007.6
20260503212503 11 191 0.0 11.3 0.00 0.00 0.00 29 1007.5
20260503212004 11 0 0.0 0.0 0.00 0.00 0.00 31 1007.5
20260503211603 11 190 0.0 1.6 0.00 0.00 0.00 29 1008.3
20260503211503 11 191 0.0 3.2 0.00 0.00 0.00 30 1007.4
20260503210503 12 191 0.0 6.4 0.00 0.00 0.00 30 1007.4
20260503210003 12 0 0.0 0.0 0.00 0.00 0.00 28 1007.2
20260503205504 12 191 0.0 3.2 0.00 0.00 0.00 26 1007.2
20260503205003 12 191 0.0 6.4 0.00 0.00 0.00 31 1007.2
20260503204603 11 190 0.0 6.4 0.00 0.00 0.00 28 1007.9
20260503204503 12 191 0.0 6.4 0.00 0.00 0.00 27 1007.2
20260503204003 12 0 0.0 0.0 0.00 0.00 0.00 29 1007.2
20260503203503 11 191 0.0 3.2 0.00 0.00 0.00 28 1007.1
20260503203103 11 190 0.0 3.2 0.00 0.00 0.00 29 1007.9
20260503203003 12 191 0.0 3.2 0.00 0.00 0.00 27 1007.1
20260503202003 12 191 0.0 9.7 0.00 0.00 0.00 30 1007.0
20260503201603 11 190 0.0 1.6 0.00 0.00 0.00 29 1007.9
20260503201503 12 191 0.0 1.6 0.00 0.00 0.00 29 1007.0
20260503201003 11 191 0.0 6.4 0.00 0.00 0.00 28 1007.0
20260503200503 11 191 0.0 6.4 0.00 0.00 0.00 32 1007.1
20260503200003 11 191 0.0 4.8 0.00 0.00 0.00 29 1006.9
20260503195503 11 191 0.0 4.8 0.00 0.00 0.00 27 1007.0
20260503194624 11 190 0.0 0.0 0.00 0.00 0.00 33 1007.8
20260503194503 11 0 0.0 0.0 0.00 0.00 0.00 30 1007.1
20260503194003 11 191 0.0 1.6 0.00 0.00 0.00 31 1007.0
20260503193503 11 191 0.0 1.6 0.00 0.00 0.00 31 1007.0